Regional Weather Roundup
Issued by NWS New Orleans/Baton Rouge, LA

Home | Current Version | Previous Version | Text Only | Print | Product List | Glossary On
Versions: 1 2 3 4 5 6 7 8 9 10 11 12 13 14 15 16 17 18 19 20 21 22 23 24 25 26 27 28 29 30 31 32 33 34 35 36 37 38 39 40 41 42 43 44 45 46 47 48 49 50
626
ASUS44 KLIX 212010
RWRLIX
NEW ORLEANS REGIONAL WEATHER ROUNDUP
NATIONAL WEATHER SERVICE NEW ORLEANS LA
300 PM CDT MON JUL 21 2014

NOTE: "FAIR" INDICATES FEW OR NO CLOUDS BELOW 12,000 FEET WITH NO
      SIGNIFICANT WEATHER AND/OR OBSTRUCTIONS TO VISIBILITY.
      SKY/WX - SKY CONDITION AND SIGNIFICANT WEATHER.
      TMP - AIR TEMPERATURE.     DP    - DEWPOINT TEMPERATURE.
      RH  - RELATIVE HUMIDITY.   PRES  - PRESSURE.
      HI  - HEAT INDEX.          WCI   - WIND CHILL INDEX.

*  THESE STATIONS ARE NOT NWS OR FAA STATIONS AND ARE NOT UNDER
   NWS QUALITY CONTROL.

LAZ038-040-048-061>063-065>067-069-212100-
SOUTHEAST LOUISIANA

CITY           SKY/WX    TMP DP  RH WIND       PRES   REMARKS
N.O. AUDUBON     N/A     92  72  51 MISG        N/A  HX  99
N.O. INTL ARPT MOSUNNY   89  73  59 N10G18    30.01F HX  97
N.O. LAKEFRONT SUNNY     88  72  58 N6        30.02F
N.O. DOWNTOWN*   N/A     88  70  55 N7        30.02F
SLIDELL        MOSUNNY   90  69  50 VRB7      30.01F
BATON ROUGE    MOSUNNY   90  71  53 W9        30.02F HX  96
BOOTHVILLE     PTSUNNY   84  77  79 E6        30.02F
BELLE CHASSE   PTSUNNY   90  70  51 VRB6      30.01F HX  95
BOGALUSA*      MOCLDY    89  68  50 N8        30.03F
GALLIANO*      NOT AVBL
NEW ROADS*       N/A     87  73  62 NW7       30.02F HX  95
GONZALES*        N/A     90  72  55 NW8       30.01F HX  96
HAMMOND*       MOSUNNY   91  68  46 N6        30.03F HX  95
HOUMA*         PTSUNNY   91  72  52 NW9       30.01F HX  98
PORT FOURCHON* PTCLDY    86  77  74 W6G14     30.04F HX  97

$$

MSZ070-080>082-212100-
SOUTHERN MISSISSIPPI

CITY           SKY/WX    TMP DP  RH WIND       PRES   REMARKS
MCCOMB         MOSUNNY   87  68  52 N6        30.04S
GULFPORT       MOSUNNY   92  68  45 NW8       30.00F HX  96
BILOXI         MOSUNNY   91  69  48 W3        30.00F HX  96
PASCAGOULA     SUNNY     90  69  50 VRB6      30.00F
STENNIS ARPT*  MOSUNNY  N/A N/A N/A N6        30.02F

$$

COASTAL OBSERVATIONS
LAKE AND NEARSHORE STATIONS

STATION/POSITION TIME  TEMP    WIND        PRES    WAVE
                       AIR SEA DIR/SP/G            HT/PER
                 (UTC) (F)     (DEG/KT/KT) (MB)    (FT/S)
PASCAGOULA       2000   86     220/ 11/ 14 1015.5
WAVELAND YACHT   2000   87     340/  4/  9 1015.8
GRAND ISLE       2000   86 83  340/  2/  5 1017.2
SOUTHWEST PASS   2000   91 85  310/  5/  7 1017.0
NEW CANAL        2000   85 83   20/  5/  6 1017.0
SHELL BEACH      2000   85 80  310/  7/  9 1016.3

OFFSHORE STATIONS

STATION/POSITION TIME  TEMP    WIND        PRES    WAVE
                       AIR SEA DIR/SP/G            HT/PER
                 (UTC) (F)     (DEG/KT/KT) (MB)    (FT/S)
64 S DAUPHIN ISL 1901   81 83  350/  2/  2 1016.8

$$




USA.gov is the U.S. government's official web portal to all federal, state and local government web resources and services.